Details From PAQT - NUIQSUT
To PASC - DEADHORSE
Flight Number -
Tags generated
Created
Modified
Stats Distance 52 nm / 96 km
Max Altitude 5,800 ft / 1,768 m
Waypoints 3
Social Downloads 1
Likes 0
Share VATSIM

Download

Looking for another format? Having issues loading an existing format? Contact us
Advertisement - Login to hide

Notes

Basic altitude profile: - Ascent Rate: 1600ft/min - Ascent Speed: 165kts - Cruise Altitude: 6000ft - Cruise Speed: 165kts - Descent Rate: 1500ft/min - Descent Speed: 165kts Options: - Use NATs: yes - Use PACOTS: yes - Use low airways: yes - Use high airways: yes

Route

PAQT ZADRO PASC

ID Type Via Altitude Latitude Longitude Leg Dist Tot Dist Heading (true) Name
O PAQT APT - 0 ft / 0 m 70.20994˚ -151.00555˚ - 0 nm - NUIQSUT
ZADRO FIX - 5,800 ft / 1,768 m 70.21938˚ -150.20105˚ 16 nm 16 nm 88° / 88° -
O PASC APT - 0 ft / 0 m 70.19475˚ -148.46516˚ 35 nm 51 nm 92° / 93° DEADHORSE

Altitude Profile

Advertisement - Login to hide

PAQT

Details ICAO PAQT (NUI)
Name NUIQSUT
Region USA (Alaska)
Timezone America/Anchorage (UTC-8.0)
Stats Elevation 38 ft / 12 m (AMSL)
Location 70.209945° -151.005554°
Runways 1
Magnetic Variation 16.755° E

METAR

PAQT 201153Z AUTO 06016G25KT 10SM OVC009 M06/M07 A3004 RMK AO2 SLP172 T10561067 11044 21056 58005 TSNO

Decode

TAF

TAF PAQT 201120Z 2012/2112 05022KT 6SM -SN BR OVC008 FM201500 07020G30KT 2SM BR OVC007 FM202100 07020G28KT 6SM BR OVC010

Decode

Departure Runways

ID Width Length Bearing (true) Bearing (mag) Surface Threshold Offset Overrun Length
04 89 ft / 27 m 4,347 ft / 1,325 m 69.69° 52.93° Gravel 0 ft / 0 m 0 ft / 0 m
22 89 ft / 27 m 4,347 ft / 1,325 m 249.72° 232.96° Gravel 0 ft / 0 m 0 ft / 0 m

PASC

Details ICAO PASC (SCC)
Name DEADHORSE
Region USA (Alaska)
Timezone America/Anchorage (UTC-8.0)
Stats Elevation 64 ft / 20 m (AMSL)
Location 70.194754° -148.465162°
Runways 1
Magnetic Variation 17.751° E

METAR

PASC 201153Z 07024KT 10SM OVC007 M05/M07 A3000

Decode

TAF

TAF PASC 201120Z 2012/2112 06022G30KT 6SM BR OVC007 FM201500 07020G30KT 1 1/2SM BR OVC007 FM202100 07020G28KT 4SM BR OVC012

Decode

Destination Runways

ID Width Length Bearing (true) Bearing (mag) Surface Threshold Offset Overrun Length
04 151 ft / 46 m 6,506 ft / 1,983 m 74.98° 57.23° Asphalt 0 ft / 0 m 0 ft / 0 m
22 151 ft / 46 m 6,506 ft / 1,983 m 255.03° 237.28° Asphalt 0 ft / 0 m 0 ft / 0 m

Approach Navaids

Runway Type Ident Frequency Range Bearing (true) Bearing (mag) Slope Elevation
04 Localiser ISCC 109.30 MHz 18 nm / 33 km 75.03° 57.28° - 64 ft / 20 m (AMSL)
04 Glidescope ISCC 109.30 MHz 10 nm / 19 km 75.00° 57.25° 3.00° 52 ft / 16 m (AMSL)